Temp
25 25 23 27 29 31 33 35 36 33 30 29 30 29 25 24 24 22 20 19 18 15 13 13 12 12 12 12 12 11 11 11 11 10 10 10 10 10 9 9 9 9 10 10 10 10 10 10 9
25 25 27 31 30 31 35 34 30 30 29 29 29 29 27 22 22 20 19 18 18 16 14 13 12 12 12 11 11 11 11 11 10 10 10 10 9 9 9 9 9 9 9 9 9 9 9 9 9
26 27 30 31 32 33 34 33 30 29 30 30 28 27 26 22 22 21 18 18 18 17 14 12 12 12 12 11 11 11 10 10 10 9 9 9 9 9 8 8 8 8 8 8 8 9 8 8 8
27 31 31 30 32 35 34 33 31 30 29 29 28 23 23 23 22 19 18 18 18 16 13 12 11 11 11 11 10 10 10 10 10 9 9 8 8 8 8 7 7 8 8 8 8 8 7 7 7
29 32 31 32 34 34 34 33 33 31 29 29 29 24 21 22 19 18 18 18 17 15 13 11 11 11 11 11 10 10 10 10 9 9 8 8 7 7 7 7 7 7 7 7 7 7 7 7 7
31 33 31 32 34 34 32 32 32 31 29 28 27 23 22 20 19 19 18 18 17 15 13 12 11 10 10 10 9 9 9 9 9 8 7 7 7 7 7 7 7 7 6 6 6 6 6 6 6
30 32 32 33 34 34 31 32 31 31 29 28 29 25 22 21 19 19 18 17 16 15 14 13 12 11 11 10 10 9 9 8 8 8 7 7 7 7 8 8 8 6 6 6 6 6 5 5 6
33 33 32 33 34 30 31 31 31 30 29 29 29 25 21 21 19 18 17 16 15 14 13 13 13 13 11 11 11 10 10 10 9 8 8 8 9 9 9 9 8 7 6 6 6 6 6 6 6
35 31 31 33 33 32 32 31 29 29 27 28 27 26 24 20 19 18 17 16 14 14 13 13 13 13 13 13 11 11 11 10 10 9 9 8 9 8 9 9 8 8 7 7 7 7 7 7 7
33 31 32 34 33 32 32 31 29 28 27 26 25 24 22 20 19 19 18 17 16 15 14 13 13 13 13 14 13 12 12 12 11 10 8 8 8 8 9 9 9 9 8 8 8 8 8 7 6
34 32 33 33 31 31 31 31 31 28 28 28 25 23 21 20 20 19 19 18 17 16 15 14 12 12 12 13 13 12 12 11 11 10 8 8 7 8 8 8 8 8 8 8 7 7 6 5 5
33 34 33 32 31 30 30 32 29 29 28 28 26 23 21 21 20 20 20 19 18 17 16 15 13 12 11 12 12 12 11 11 10 9 9 7 6 7 7 7 7 7 7 7 7 5 5 5 5
33 32 33 32 30 30 30 29 30 29 27 28 25 23 21 21 21 21 21 20 19 17 16 15 13 12 11 12 10 10 11 10 9 9 9 7 6 6 6 6 6 7 7 6 5 4 4 4 4
32 31 31 32 30 29 28 29 29 29 27 27 25 23 22 22 22 22 21 21 19 17 15 14 13 12 11 11 10 10 11 9 10 9 8 7 6 5 5 5 6 6 6 5 4 3 4 4 4
30 29 30 31 30 29 28 27 28 29 27 26 24 23 23 22 22 22 21 20 19 17 15 14 13 11 11 11 10 10 10 9 9 9 8 7 6 5 5 5 5 6 5 5 4 4 4 4 4
29 29 28 31 31 29 27 26 29 27 26 25 24 24 23 23 23 22 21 20 19 18 15 14 14 12 11 10 10 10 9 8 9 9 8 8 6 5 5 4 5 5 5 5 5 5 4 4 3
29 28 29 30 30 29 27 27 29 27 26 26 25 24 23 23 23 22 21 20 19 17 15 14 13 12 11 10 10 11 10 10 9 9 9 7 6 5 5 4 4 5 5 5 5 4 2 2 1
26 27 28 28 30 29 28 28 29 28 27 26 25 25 24 23 23 22 21 20 19 16 15 14 13 12 11 11 11 11 10 10 10 9 9 7 6 6 5 4 4 4 4 5 4 3 1 1 1
27 27 27 28 29 29 28 28 28 29 28 27 26 25 24 23 23 22 21 20 18 16 15 14 12 11 11 11 10 10 10 9 9 9 8 7 7 6 5 5 4 4 4 4 3 2 1 0 0
26 26 26 28 28 26 26 26 28 28 28 28 27 26 24 23 23 22 20 19 17 15 15 14 12 11 10 10 10 10 9 9 9 9 8 8 7 6 6 5 4 4 3 3 3 2 1 0 0
26 26 25 24 25 26 26 25 27 28 27 27 26 27 25 23 22 21 20 18 17 15 14 13 12 11 10 9 9 9 9 9 8 8 8 7 6 6 6 5 4 4 3 3 3 2 0 -0 -0
24 26 25 24 23 22 25 23 21 23 24 24 24 25 25 24 22 20 19 17 17 14 13 13 11 10 10 9 8 8 8 7 7 7 7 6 6 6 5 5 4 3 3 3 3 2 0 -1 -1
24 25 24 24 24 24 24 23 21 23 21 19 23 25 25 23 21 20 19 17 16 14 13 11 11 10 9 9 8 7 7 6 6 6 6 6 5 5 5 4 3 3 3 2 2 1 -0 -1 -1
25 24 24 24 23 21 21 21 19 19 21 22 22 23 24 22 21 19 18 16 15 14 12 11 12 11 9 8 8 7 6 6 6 6 5 5 5 5 4 4 3 3 2 2 1 -0 -1 -1 -1
24 23 20 18 19 18 22 21 16 20 20 20 21 23 23 21 18 16 16 16 14 13 12 12 12 11 9 8 7 7 6 6 6 5 5 4 4 4 3 3 2 2 1 -0 -1 -1 -2 -2 -2
22 22 18 16 18 19 22 16 15 18 20 20 22 22 17 17 16 17 16 15 14 12 12 11 11 10 9 8 7 7 6 6 5 5 4 4 3 3 3 3 2 1 -1 -1 -2 -2 -2 -3 -2
22 21 21 19 19 18 19 16 16 20 18 18 19 20 17 17 17 16 15 14 13 12 11 10 10 9 8 7 7 7 6 5 5 5 4 4 3 3 3 2 1 -1 -2 -2 -2 -3 -3 -2 -3
22 22 18 17 15 16 17 15 15 18 19 18 18 18 18 18 16 15 15 14 12 11 10 9 9 8 8 7 7 6 6 5 5 4 4 3 3 3 3 2 -1 -2 -2 -3 -3 -3 -3 -3 -3
17 18 16 14 12 14 15 15 17 19 17 17 17 17 17 16 15 15 14 13 12 11 10 9 9 8 7 7 7 6 5 5 4 4 4 4 3 3 3 -1 -2 -2 -3 -3 -3 -3 -3 -3 -3
20 18 13 13 14 13 13 15 15 17 18 17 17 17 16 16 15 15 14 13 12 11 10 9 9 8 8 7 7 6 5 5 4 4 4 4 3 3 1 -1 -3 -3 -3 -3 -3 -3 -3 -3 -3
Height
751 751 752 751 764 745 737 717 700 718 732 731 733 737 761 767 774 794 795 800 803 807 812 815 817 819 820 821 822 823 824 825 825 825 825 824 824 823 821 820 819 818 818 817 815 814 813 812 810
751 752 750 742 761 755 725 712 734 734 736 736 739 742 755 782 779 789 797 802 804 807 811 815 817 819 821 822 823 824 825 825 825 825 825 824 824 823 821 820 819 818 817 816 814 813 812 811 809
749 748 748 746 743 744 729 720 734 736 733 737 748 752 760 782 784 790 797 802 805 809 811 815 818 819 821 822 823 824 825 826 825 825 825 824 823 822 821 819 817 817 815 814 812 811 810 809 808
748 742 740 750 741 713 716 718 727 735 734 740 745 773 776 779 784 793 798 802 805 808 812 816 818 819 821 822 823 824 824 825 825 825 824 824 823 822 820 818 817 815 814 812 811 810 809 807 807
745 738 749 741 725 716 714 715 717 726 738 745 746 771 782 786 790 795 799 802 806 810 814 816 817 819 821 822 823 823 824 824 824 824 823 823 822 820 819 817 816 815 813 811 810 809 807 805 804
743 731 751 742 719 708 717 716 718 726 739 751 756 773 783 788 793 797 800 803 807 811 814 816 817 819 820 822 823 823 824 824 824 823 822 821 820 819 818 817 816 814 812 810 809 807 805 803 802
747 742 743 732 724 718 725 715 723 729 740 747 747 767 781 787 793 797 801 805 808 812 814 816 817 819 820 821 822 822 823 823 822 821 821 820 819 818 817 816 815 813 810 809 807 805 804 802 800
731 733 742 729 723 737 724 723 722 731 741 741 745 763 779 781 791 797 801 806 810 813 815 817 818 818 818 820 821 821 822 821 820 820 819 819 818 818 817 815 813 811 809 808 806 804 802 800 798
720 746 746 727 726 726 719 727 728 734 745 746 751 755 760 779 789 795 801 807 811 814 816 817 819 820 821 820 820 820 819 819 819 819 820 819 817 816 815 814 812 809 808 807 805 803 802 799 797
727 740 732 713 718 725 719 725 734 743 746 752 758 763 772 781 787 792 798 803 808 812 815 817 819 820 820 821 821 820 819 818 820 819 818 818 817 815 814 812 811 808 807 805 804 802 800 798 795
717 730 716 713 721 722 725 721 722 739 742 739 753 764 774 781 785 789 793 798 803 809 812 816 819 820 820 820 820 820 820 818 820 818 817 816 816 814 813 811 809 808 806 804 803 801 799 797 796
722 711 716 717 719 727 728 719 730 733 736 733 742 758 771 778 782 786 789 794 799 806 811 815 817 819 820 819 820 820 819 819 818 818 817 815 815 814 812 810 808 806 805 803 801 799 798 797 795
719 716 714 717 725 728 724 730 727 730 734 738 747 759 768 774 779 782 785 790 796 803 810 814 817 819 819 820 820 820 819 818 818 818 816 814 814 813 811 809 807 805 803 801 798 798 797 795 793
720 722 721 716 723 725 736 730 729 729 733 740 748 759 766 771 775 779 783 788 795 802 810 814 816 818 819 819 819 819 818 817 817 816 814 814 812 812 810 808 806 804 802 799 798 798 795 793 791
725 737 725 718 717 727 730 740 731 720 732 742 749 757 763 768 772 776 782 788 795 801 808 814 816 818 818 819 818 818 817 816 815 814 813 812 810 810 809 807 804 802 800 799 797 795 794 792 789
737 733 740 711 706 723 734 747 721 722 734 742 748 754 760 766 770 775 781 788 794 800 806 813 815 816 818 818 817 817 815 814 813 812 811 809 808 808 807 805 803 801 798 797 795 794 792 790 788
729 743 729 719 707 720 731 738 723 726 733 738 744 748 756 763 769 775 782 787 793 798 805 812 815 816 817 817 815 814 812 811 810 809 809 806 806 807 805 804 802 799 797 794 792 790 789 788 787
752 746 736 734 718 719 726 726 719 718 725 731 736 741 749 759 767 774 782 787 792 798 805 811 814 816 816 815 814 813 812 810 809 807 806 805 804 804 802 801 799 797 795 792 790 788 789 790 787
747 748 745 732 719 723 725 722 716 715 715 722 727 734 744 754 762 772 781 788 794 800 806 811 814 816 816 814 813 812 811 809 808 806 804 803 802 800 799 798 796 794 792 790 787 786 786 786 785
749 748 743 729 724 733 735 731 720 712 707 709 717 727 740 751 760 769 782 790 796 803 808 812 814 816 816 815 813 812 810 808 805 804 802 801 799 798 796 794 792 791 789 787 784 783 783 782 782
747 749 749 753 742 736 733 732 719 707 705 699 714 723 735 750 761 772 782 792 799 805 810 813 815 816 816 815 813 811 809 806 804 803 801 798 797 795 793 791 789 787 785 783 780 779 778 777 777
760 744 749 752 753 760 734 754 754 734 732 732 735 736 740 747 758 772 781 792 801 807 812 814 816 816 816 815 813 811 809 807 805 802 799 797 795 792 790 788 785 783 781 778 775 774 773 773 772
760 748 751 748 746 743 739 749 752 741 753 757 745 738 739 746 758 772 783 792 801 809 813 815 817 816 816 815 813 812 810 808 804 802 798 796 793 790 787 784 781 779 776 773 770 768 767 765 765
745 750 743 741 743 762 755 761 770 766 759 753 751 745 742 750 762 773 783 794 803 810 814 817 816 815 815 815 813 812 809 807 803 800 797 795 792 788 785 781 778 774 770 766 763 761 758 756 756
749 757 774 782 773 778 749 760 788 769 764 761 755 746 749 754 766 779 790 797 805 811 815 816 815 815 815 814 813 811 809 806 803 800 797 794 790 786 782 777 773 769 765 761 757 753 750 748 746
763 761 788 805 786 774 745 783 794 775 768 764 753 752 766 771 777 784 793 801 808 814 816 817 816 816 816 815 813 811 809 806 804 801 797 793 789 784 779 774 769 764 759 755 750 745 741 738 736
767 773 769 779 779 780 770 786 784 767 776 774 766 764 774 779 784 791 799 807 812 815 818 819 818 818 817 816 813 811 809 806 803 800 797 792 787 781 775 770 764 760 754 748 741 736 732 728 727
767 764 788 792 809 800 786 796 794 779 774 775 775 778 780 784 792 798 805 810 815 819 821 821 820 820 818 816 814 812 809 807 803 800 796 790 785 779 772 765 760 752 747 740 734 728 724 721 718
792 786 796 809 822 817 806 802 784 777 781 783 782 784 785 791 798 803 809 814 818 821 822 822 822 820 819 817 815 813 810 807 804 800 794 789 783 776 770 763 756 749 741 733 726 721 716 712 709
779 788 811 815 816 817 819 800 793 785 780 784 784 786 791 797 802 807 812 817 820 821 823 824 822 821 820 818 816 814 811 808 804 799 794 788 782 775 770 763 753 746 735 727 720 713 710 706 702
Wind_Speed
6 7 7 12 6 8 17 2 14 13 9 16 11 14 15 14 7 8 17 13 16 18 15 12 11 10 9 8 8 7 6 6 7 8 9 9 11 12 13 14 14 13 13 13 13 13 12 13 14
7 10 15 6 8 12 8 18 18 15 13 10 11 5 10 8 13 16 14 14 14 15 18 13 11 10 8 8 7 6 5 5 5 7 8 9 10 11 13 13 14 14 14 14 14 13 13 13 13
14 15 8 7 13 15 6 18 13 12 8 6 6 13 7 7 12 9 20 16 14 15 17 14 11 9 8 6 6 6 5 4 4 6 7 8 10 11 13 14 14 14 15 15 15 14 14 14 13
7 7 6 8 16 17 11 14 13 11 10 5 13 10 7 13 8 15 18 16 15 17 15 13 11 9 7 6 5 5 4 3 3 5 6 8 10 11 12 13 14 14 15 15 15 14 15 14 14
16 7 12 17 24 8 10 9 7 7 9 6 2 11 10 12 20 20 17 16 17 16 14 11 10 9 8 7 5 4 3 2 2 4 6 8 10 12 12 12 14 13 15 15 15 15 15 15 15
9 12 14 16 20 3 12 8 6 9 9 7 11 13 8 18 18 17 16 16 15 19 12 11 11 9 8 7 5 4 3 2 3 4 6 10 12 10 11 12 15 12 16 15 15 15 16 16 16
13 12 17 20 19 3 12 6 8 7 6 7 10 11 11 18 18 18 18 17 15 14 13 11 8 5 7 6 4 3 3 2 5 5 8 12 11 9 14 13 11 14 16 15 16 16 16 17 17
13 12 20 19 18 8 6 11 8 2 7 9 5 7 10 20 22 20 18 17 15 12 11 9 8 6 5 5 5 5 5 7 9 9 10 14 16 9 13 13 14 15 16 15 17 16 18 18 17
16 12 14 18 15 8 6 3 6 5 7 2 5 9 22 29 25 22 19 17 15 12 10 9 7 5 3 1 4 4 6 6 8 9 8 13 14 14 13 15 14 15 15 16 16 15 17 18 16
13 11 19 9 7 11 9 3 12 4 8 7 9 11 28 27 25 23 20 18 16 15 12 9 7 5 1 3 4 2 5 4 6 7 8 12 14 14 14 13 14 13 15 15 13 16 15 13 15
13 16 16 17 9 9 12 5 6 7 11 14 16 19 20 24 22 21 20 20 17 16 13 11 7 5 4 4 4 6 6 5 7 6 12 10 14 14 14 15 15 16 14 15 16 15 15 18 16
20 12 14 10 9 9 11 9 5 7 2 10 20 22 18 17 16 20 19 20 19 17 13 12 9 5 4 4 6 6 6 8 6 9 8 10 13 15 16 16 17 16 16 16 14 16 18 17 17
17 12 12 5 5 9 9 8 9 8 10 6 20 20 19 17 19 19 18 19 20 18 15 11 8 5 3 4 5 6 6 6 9 6 7 11 11 14 15 16 17 16 16 15 17 19 18 18 18
15 15 16 14 7 5 9 14 5 11 11 9 18 18 17 17 18 18 17 18 19 20 15 10 8 5 3 4 5 7 7 6 8 8 9 9 9 13 14 17 17 17 15 15 18 17 18 18 18
7 15 16 18 15 8 6 12 17 13 12 13 15 16 16 16 19 17 16 17 16 18 18 10 7 4 2 3 6 7 8 8 9 8 9 9 9 13 14 17 18 17 15 18 17 16 16 17 18
16 15 14 17 12 9 5 11 13 16 13 14 15 14 15 15 17 17 16 16 16 17 18 10 6 5 1 3 6 7 7 10 8 9 10 8 10 13 14 16 18 18 17 18 15 16 16 16 18
17 14 15 1 13 10 12 8 7 12 14 15 15 15 14 13 14 17 16 15 16 21 18 11 6 3 1 5 7 9 8 9 10 9 9 7 12 13 15 17 18 19 19 18 15 13 17 20 21
15 18 17 18 13 8 13 14 11 12 17 14 16 16 15 13 13 17 16 15 15 21 15 11 6 2 3 8 7 10 11 11 11 10 11 13 13 12 14 17 18 18 20 18 14 17 19 17 19
13 14 15 16 14 14 16 19 16 15 15 16 15 16 16 14 14 20 15 13 17 18 13 8 5 2 4 8 9 10 12 13 12 12 12 12 14 12 15 16 16 17 20 19 15 14 13 15 17
12 15 16 14 15 17 19 23 22 15 19 18 17 14 16 14 14 17 16 15 15 14 9 7 5 2 5 9 9 9 12 13 12 10 16 14 13 17 15 16 17 16 19 20 17 19 14 16 16
11 13 14 16 18 17 19 19 19 17 19 1 11 9 13 14 14 15 15 15 13 12 9 5 5 3 5 9 11 12 13 13 13 16 15 18 20 15 16 16 16 17 19 21 19 16 13 12 15
12 15 16 17 16 12 14 12 13 14 18 18 5 2 13 16 16 15 16 16 11 13 7 8 5 5 7 8 10 12 13 14 15 16 17 21 18 18 16 17 16 16 21 21 18 14 12 12 16
13 14 15 17 16 17 14 8 12 13 15 14 14 4 5 15 18 15 15 17 15 11 9 7 2 5 7 8 9 12 13 15 17 19 20 20 20 19 19 18 17 21 21 22 18 16 16 20 19
10 15 18 15 12 5 12 7 7 6 7 6 7 11 6 15 16 15 20 21 15 11 10 4 0 5 7 9 10 12 14 17 18 19 19 19 22 20 20 21 22 22 23 21 19 18 21 23 22
15 15 5 4 2 3 6 5 6 11 13 10 9 5 6 14 18 17 13 14 15 12 6 2 5 8 8 10 11 13 15 17 18 19 20 22 20 22 22 24 24 24 20 21 20 22 22 23 22
15 11 4 4 6 11 11 3 1 9 10 10 8 11 18 17 15 14 14 16 14 9 5 7 7 8 10 11 12 14 16 17 18 19 21 20 22 23 25 25 24 21 22 24 28 28 25 25 24
10 9 4 7 8 4 5 4 9 6 7 8 7 12 15 13 12 14 16 14 13 10 9 8 9 9 10 12 14 15 17 18 19 21 20 22 22 24 25 25 22 24 27 32 29 24 24 23 20
5 8 4 4 5 5 5 4 5 10 9 9 6 10 11 10 14 11 13 14 13 11 7 7 8 9 10 12 14 16 18 19 20 21 23 23 24 25 26 23 27 33 30 26 24 20 17 16 18
8 3 5 5 2 2 5 1 5 9 10 6 6 8 8 13 11 10 13 14 12 10 8 8 9 9 11 12 14 17 19 20 21 22 23 24 25 26 25 25 35 24 28 25 22 20 19 17 19
10 7 4 3 2 2 2 1 9 13 5 7 8 10 12 11 10 10 13 13 10 9 9 8 8 10 11 12 15 17 19 21 22 23 25 25 26 26 28 37 29 29 26 27 25 22 17 15 13
Wind_Direction
240 201 226 260 255 232 260 227 36 76 70 60 56 66 90 42 16 99 126 119 120 118 127 121 118 112 107 93 85 74 72 65 56 46 40 31 24 20 16 14 10 7 4 0 357 353 349 345 344
206 218 239 282 246 277 278 67 61 65 94 92 61 101 44 69 78 114 120 137 130 130 134 121 117 111 106 93 82 65 67 57 50 38 32 25 16 12 9 6 3 1 357 355 352 349 347 345 342
212 256 273 232 243 251 288 85 91 90 96 71 98 43 46 97 127 112 128 133 126 125 111 112 114 106 104 101 81 63 63 47 41 27 19 13 9 2 359 357 358 356 354 351 348 347 345 343 341
230 225 244 256 265 285 32 84 113 117 89 25 98 85 83 101 114 128 134 134 130 111 109 112 112 106 109 111 90 64 64 47 37 15 8 0 356 353 350 352 353 351 350 348 344 341 340 338 335
243 264 261 263 265 74 84 67 106 102 88 114 360 97 101 96 108 130 136 132 125 109 117 117 114 110 116 120 98 71 48 65 30 359 352 349 344 343 349 346 346 345 345 341 338 334 333 331 328
265 257 271 280 302 144 85 79 85 80 90 82 118 109 111 126 134 137 135 128 123 122 123 117 117 121 121 122 105 63 63 69 15 349 343 339 333 333 343 339 337 335 339 335 334 331 327 326 324
255 279 287 298 298 118 93 88 85 95 135 164 120 135 131 147 143 142 133 128 125 121 116 122 117 135 116 122 70 55 96 13 336 338 340 345 332 318 330 332 336 337 333 332 330 328 325 324 320
251 277 288 284 282 86 98 73 65 108 104 90 156 164 167 154 151 147 137 131 131 130 127 121 108 109 147 109 36 27 28 10 12 2 357 345 331 335 328 330 325 331 331 330 328 326 328 325 321
257 275 272 283 351 46 121 68 91 42 129 173 110 33 129 145 152 150 144 146 144 142 134 128 120 111 126 201 19 357 351 347 352 11 337 344 343 337 330 327 325 322 326 325 324 323 323 321 322
231 261 277 358 354 350 348 116 127 164 158 170 121 106 130 149 160 160 161 161 164 153 147 139 125 105 108 75 4 307 346 16 346 340 346 345 340 335 331 333 328 330 326 325 329 326 326 338 335
245 259 289 320 49 341 320 284 164 205 217 196 164 142 148 159 168 170 173 165 170 155 164 136 128 103 52 43 19 11 351 354 341 349 348 341 342 338 336 335 333 332 326 331 329 330 336 326 323
287 271 288 318 3 316 305 312 163 250 119 52 141 150 158 170 176 181 180 163 163 155 141 135 127 114 57 57 22 353 349 345 342 335 336 351 342 337 337 334 332 327 330 329 333 338 326 322 318
289 301 289 301 317 283 301 269 262 235 118 118 131 152 165 175 179 186 183 162 148 146 138 137 134 123 84 33 19 353 338 344 331 330 328 353 340 334 334 330 325 325 326 332 339 329 322 321 317
306 320 295 288 246 242 277 277 168 250 130 161 145 164 172 181 180 184 181 158 146 141 143 142 138 122 76 26 3 340 339 335 325 329 334 337 337 334 330 328 323 322 326 335 330 318 315 312 313
307 284 281 272 235 229 216 262 255 199 154 166 167 171 176 185 182 180 176 150 152 146 145 153 142 131 72 14 355 347 345 344 322 328 330 326 336 335 329 325 322 320 329 325 320 307 312 315 321
273 269 271 264 184 172 188 288 309 124 167 176 179 176 180 185 183 176 171 158 162 155 139 159 151 137 68 344 344 324 311 326 312 316 317 316 342 330 327 323 319 320 324 311 310 316 321 326 326
254 251 271 182 173 174 201 270 295 156 186 188 187 176 177 179 181 170 166 170 167 138 139 154 151 147 15 327 314 311 296 300 292 310 310 318 336 320 323 317 315 316 315 310 313 325 339 336 325
338 328 322 317 313 211 244 261 271 205 196 208 185 184 172 176 179 163 165 179 162 131 139 151 155 108 331 313 333 331 326 328 325 319 322 321 314 308 314 316 312 318 310 310 319 327 317 307 306
321 304 301 299 304 313 301 298 282 281 222 199 200 188 168 173 169 156 164 141 123 126 138 152 149 75 340 345 346 336 328 323 320 313 308 322 309 310 311 306 307 311 309 313 315 317 307 303 308
286 295 300 318 338 334 312 295 291 276 284 205 192 186 163 162 162 145 130 135 127 129 143 147 114 80 5 348 325 336 330 316 319 338 336 322 338 323 309 307 305 305 305 303 304 298 288 287 286
316 308 335 319 315 300 291 307 320 337 19 89 78 188 153 149 154 132 135 136 131 140 145 140 105 39 16 352 349 351 335 339 343 338 332 340 326 315 314 310 307 303 299 298 291 287 275 270 276
316 342 329 310 308 303 307 302 55 41 49 34 53 80 173 150 135 138 144 136 158 129 130 108 77 40 15 5 360 352 351 345 335 339 335 332 321 327 319 316 312 313 308 299 299 296 280 276 276
307 325 303 284 277 283 285 296 88 55 48 30 333 356 149 140 135 133 142 142 127 126 124 101 99 49 19 6 5 355 350 345 332 333 336 326 337 325 330 325 326 319 307 301 298 292 274 275 262
269 289 296 332 304 318 13 337 43 25 34 53 4 321 140 125 124 126 119 114 124 129 113 125 27 55 22 10 2 357 350 344 340 333 337 336 329 332 329 328 324 316 309 304 303 288 273 268 261
347 317 338 340 339 299 285 324 61 17 13 356 333 90 101 114 110 106 111 128 120 105 115 175 36 36 26 11 0 356 352 344 341 342 340 336 334 332 329 324 327 318 321 316 304 299 291 282 266
307 329 47 298 327 316 336 78 303 327 29 10 26 87 88 95 104 113 116 113 114 117 99 42 33 34 19 10 3 357 352 347 342 344 338 340 336 331 326 332 324 326 320 312 312 303 291 287 272
332 351 236 308 349 313 1 113 25 63 71 42 60 94 101 100 107 102 107 112 114 100 71 43 36 31 20 10 3 359 351 351 350 344 347 342 338 331 332 329 341 337 323 315 313 304 302 284 267
338 2 360 10 360 333 317 28 22 22 40 84 88 90 105 110 99 108 114 115 104 94 83 60 43 30 19 11 3 355 355 354 352 354 352 342 341 339 336 338 331 323 324 321 326 315 301 292 278
344 353 38 102 60 351 319 74 299 34 36 79 106 135 121 104 113 121 117 111 112 98 84 55 38 28 17 10 2 2 360 356 360 357 347 349 347 344 343 353 338 343 341 338 330 324 312 292 281
354 64 96 112 133 229 235 303 331 336 83 125 126 105 102 116 127 120 118 118 118 99 77 62 42 25 17 11 8 10 360 2 2 356 353 353 351 350 1 347 343 346 345 337 329 324 325 316 302